Torna al catalogo

TRANSIT 5B-1 DEB

AttivoPO
NORAD 2097·DEBRIS·🇺🇸 United States

Lanciato Sep 28, 1963 da Vandenberg Space Force Base

Loading…

Prossimi Passaggi (prossime 24 ore)

TLE

AggiornatoSource: Space-Track

Epoca: Sep 14, 2026, 04:57 UTC

1 02097U 63038G   26257.20664586  .00000607  00000-0  71785-3 0  9991
2 02097  89.9988 338.1305 0036921 290.1997  97.7464 13.66545431111785

Traccia TRANSIT 5B-1 DEB in tempo reale con AllMySat

Download on the App Store